| time (UTC) | temp F | wind direction | speed MPH | gust MPH | rain 1hr in | rain 24hr in | rain mn in | humidity % | barometer mb |
| 20260507022702 | 57 | 247 | 0.0 | 0.0 | 0.00 | 0.00 | 0.00 | 54 | 1022.0 |
| 20260507022158 | 57 | 241 | 0.0 | 0.0 | 0.00 | 0.00 | 0.00 | 53 | 1021.8 |
| 20260507021654 | 58 | 275 | 0.0 | 0.0 | 0.00 | 0.00 | 0.00 | 52 | 1021.9 |
| 20260507021149 | 58 | 259 | 0.0 | 0.0 | 0.00 | 0.00 | 0.00 | 52 | 1021.5 |
| 20260507020648 | 59 | 12 | 1.0 | 1.0 | 0.00 | 0.00 | 0.00 | 51 | 1021.6 |
| 20260507020144 | 59 | 114 | 0.0 | 1.0 | 0.00 | 0.00 | 0.00 | 51 | 1021.6 |
| 20260507015642 | 59 | 358 | 1.0 | 2.0 | 0.00 | 0.00 | 0.00 | 50 | 1021.3 |
| 20260507015139 | 59 | 96 | 1.0 | 2.0 | 0.00 | 0.00 | 0.00 | 50 | 1021.3 |
| 20260507014636 | 60 | 246 | 0.0 | 0.0 | 0.00 | 0.00 | 0.00 | 49 | 1021.6 |
| 20260507014132 | 60 | 221 | 0.0 | 1.0 | 0.00 | 0.00 | 0.00 | 49 | 1021.3 |
| 20260507013629 | 60 | 130 | 1.0 | 1.0 | 0.00 | 0.00 | 0.00 | 48 | 1021.1 |
| 20260507013126 | 60 | 270 | 1.0 | 1.0 | 0.00 | 0.00 | 0.00 | 47 | 1021.0 |
| 20260507012623 | 61 | 100 | 0.0 | 0.0 | 0.00 | 0.00 | 0.00 | 47 | 1020.9 |
| 20260507012118 | 61 | 180 | 1.0 | 2.0 | 0.00 | 0.00 | 0.00 | 47 | 1020.9 |
| 20260507011617 | 61 | 79 | 1.0 | 2.0 | 0.00 | 0.00 | 0.00 | 46 | 1021.2 |
| 20260507011113 | 62 | 7 | 1.0 | 2.0 | 0.00 | 0.00 | 0.00 | 46 | 1020.9 |
| 20260507010608 | 62 | 285 | 2.0 | 3.0 | 0.00 | 0.00 | 0.00 | 46 | 1020.8 |
| 20260507010104 | 62 | 39 | 2.0 | 4.0 | 0.00 | 0.00 | 0.00 | 46 | 1020.8 |
| 20260507005602 | 62 | 126 | 4.0 | 7.0 | 0.00 | 0.00 | 0.00 | 46 | 1020.8 |
| 20260507005057 | 62 | 128 | 2.0 | 2.0 | 0.00 | 0.00 | 0.00 | 45 | 1020.8 |
| 20260507004555 | 62 | 271 | 0.0 | 1.0 | 0.00 | 0.00 | 0.00 | 46 | 1020.9 |
| 20260507004052 | 62 | 244 | 1.0 | 2.0 | 0.00 | 0.00 | 0.00 | 45 | 1020.9 |
| 20260507003548 | 63 | 8 | 1.0 | 1.0 | 0.00 | 0.00 | 0.00 | 46 | 1020.6 |
| 20260507003043 | 63 | 12 | 2.0 | 2.0 | 0.00 | 0.00 | 0.00 | 45 | 1020.7 |
| 20260507002540 | 63 | 251 | 0.0 | 0.0 | 0.00 | 0.00 | 0.00 | 45 | 1020.6 |
| 20260507002036 | 63 | 158 | 1.0 | 1.0 | 0.00 | 0.00 | 0.00 | 45 | 1020.7 |
| 20260507001533 | 63 | 257 | 0.0 | 1.0 | 0.00 | 0.00 | 0.00 | 45 | 1020.5 |
| 20260507001030 | 64 | 10 | 2.0 | 3.0 | 0.00 | 0.00 | 0.00 | 44 | 1020.6 |
| 20260507000526 | 64 | 245 | 0.0 | 0.0 | 0.00 | 0.00 | 0.00 | 45 | 1020.6 |
| 20260507000023 | 65 | 281 | 1.0 | 1.0 | 0.00 | 0.00 | 0.00 | 45 | 1020.5 |
| 20260506235519 | 65 | 105 | 1.0 | 2.0 | 0.00 | 0.00 | 0.00 | 44 | 1020.5 |
| 20260506235015 | 65 | 260 | 1.0 | 1.0 | 0.00 | 0.00 | 0.00 | 43 | 1020.3 |
| 20260506234513 | 65 | 283 | 2.0 | 4.0 | 0.00 | 0.00 | 0.00 | 43 | 1020.3 |
| 20260506234010 | 65 | 182 | 1.0 | 1.0 | 0.00 | 0.00 | 0.00 | 43 | 1020.2 |
| 20260506233506 | 64 | 286 | 1.0 | 2.0 | 0.00 | 0.00 | 0.00 | 44 | 1020.1 |
| 20260506233003 | 66 | 359 | 3.0 | 4.0 | 0.00 | 0.00 | 0.00 | 43 | 1020.2 |
| 20260506232459 | 66 | 1 | 2.0 | 3.0 | 0.00 | 0.00 | 0.00 | 42 | 1020.1 |
| 20260506231955 | 66 | 342 | 1.0 | 2.0 | 0.00 | 0.00 | 0.00 | 42 | 1020.0 |
| 20260506231452 | 66 | 31 | 2.0 | 2.0 | 0.00 | 0.00 | 0.00 | 42 | 1019.9 |
| 20260506230950 | 66 | 60 | 3.0 | 4.0 | 0.00 | 0.00 | 0.00 | 42 | 1020.2 |
| 20260506230446 | 66 | 273 | 1.0 | 2.0 | 0.00 | 0.00 | 0.00 | 43 | 1020.0 |
| 20260506225942 | 65 | 100 | 1.0 | 2.0 | 0.00 | 0.00 | 0.00 | 44 | 1020.0 |
| 20260506225440 | 64 | 355 | 2.0 | 2.0 | 0.00 | 0.00 | 0.00 | 44 | 1019.8 |
| 20260506224937 | 66 | 78 | 2.0 | 3.0 | 0.00 | 0.00 | 0.00 | 43 | 1019.8 |
| 20260506224434 | 65 | 160 | 2.0 | 3.0 | 0.00 | 0.00 | 0.00 | 43 | 1019.6 |
| 20260506223930 | 64 | 133 | 1.0 | 1.0 | 0.00 | 0.00 | 0.00 | 44 | 1019.7 |
| 20260506223426 | 65 | 331 | 2.0 | 4.0 | 0.00 | 0.00 | 0.00 | 43 | 1019.7 |
| 20260506222924 | 65 | 20 | 3.0 | 3.0 | 0.00 | 0.00 | 0.00 | 43 | 1019.6 |
| 20260506222420 | 65 | 29 | 3.0 | 6.0 | 0.00 | 0.00 | 0.00 | 44 | 1019.5 |
| 20260506221917 | 64 | 89 | 2.0 | 3.0 | 0.00 | 0.00 | 0.00 | 44 | 1019.4 |
| 20260506221414 | 65 | 54 | 3.0 | 3.0 | 0.00 | 0.00 | 0.00 | 43 | 1019.3 |
| 20260506220912 | 65 | 51 | 3.0 | 3.0 | 0.00 | 0.00 | 0.00 | 43 | 1019.3 |
| 20260506220407 | 66 | 75 | 6.0 | 9.0 | 0.00 | 0.00 | 0.00 | 43 | 1019.4 |
| 20260506215904 | 67 | 249 | 0.0 | 0.0 | 0.00 | 0.00 | 0.00 | 44 | 1019.4 |
| 20260506215400 | 66 | 325 | 1.0 | 2.0 | 0.00 | 0.00 | 0.00 | 43 | 1019.4 |
| 20260506214856 | 64 | 61 | 2.0 | 4.0 | 0.00 | 0.00 | 0.00 | 44 | 1019.5 |
| 20260506214353 | 65 | 124 | 3.0 | 4.0 | 0.00 | 0.00 | 0.00 | 43 | 1019.2 |
| 20260506213851 | 66 | 25 | 3.0 | 3.0 | 0.00 | 0.00 | 0.00 | 42 | 1019.7 |
| 20260506213348 | 66 | 114 | 3.0 | 4.0 | 0.00 | 0.00 | 0.00 | 43 | 1019.6 |
| 20260506212845 | 66 | 4 | 2.0 | 3.0 | 0.00 | 0.00 | 0.00 | 44 | 1019.6 |
| 20260506212341 | 65 | 38 | 5.0 | 8.0 | 0.00 | 0.00 | 0.00 | 43 | 1019.6 |
| 20260506211836 | 66 | 90 | 3.0 | 4.0 | 0.00 | 0.00 | 0.00 | 44 | 1019.7 |
| 20260506211332 | 65 | 240 | 0.0 | 1.0 | 0.00 | 0.00 | 0.00 | 44 | 1019.8 |
| 20260506210829 | 65 | 6 | 5.0 | 7.0 | 0.00 | 0.00 | 0.00 | 44 | 1020.0 |
| 20260506210326 | 65 | 316 | 0.0 | 1.0 | 0.00 | 0.00 | 0.00 | 45 | 1019.9 |
| 20260506205824 | 65 | 261 | 1.0 | 2.0 | 0.00 | 0.00 | 0.00 | 45 | 1019.9 |
| 20260506205319 | 66 | 82 | 1.0 | 2.0 | 0.00 | 0.00 | 0.00 | 45 | 1019.7 |
| 20260506204816 | 65 | 297 | 4.0 | 7.0 | 0.00 | 0.00 | 0.00 | 44 | 1019.9 |
| 20260506204314 | 65 | 25 | 4.0 | 7.0 | 0.00 | 0.00 | 0.00 | 45 | 1020.0 |
| 20260506203811 | 65 | 219 | 2.0 | 3.0 | 0.00 | 0.00 | 0.00 | 45 | 1020.1 |
| 20260506203309 | 64 | 254 | 2.0 | 4.0 | 0.00 | 0.00 | 0.00 | 48 | 1020.2 |
| 20260506202805 | 64 | 239 | 1.0 | 1.0 | 0.00 | 0.00 | 0.00 | 49 | 1020.1 |
| 20260506202305 | 64 | 246 | 2.0 | 3.0 | 0.00 | 0.00 | 0.00 | 48 | 1020.3 |
| 20260506201758 | 63 | 177 | 2.0 | 3.0 | 0.00 | 0.00 | 0.00 | 50 | 1020.4 |
| 20260506201256 | 63 | 187 | 3.0 | 7.0 | 0.00 | 0.00 | 0.00 | 48 | 1020.4 |
| 20260506200753 | 63 | 242 | 3.0 | 3.0 | 0.00 | 0.00 | 0.00 | 50 | 1020.3 |
| 20260506200249 | 63 | 300 | 1.0 | 3.0 | 0.00 | 0.00 | 0.00 | 49 | 1020.6 |
| 20260506195745 | 63 | 167 | 2.0 | 3.0 | 0.00 | 0.00 | 0.00 | 49 | 1020.5 |
| 20260506195242 | 62 | 160 | 3.0 | 4.0 | 0.00 | 0.00 | 0.00 | 49 | 1020.6 |
| 20260506194739 | 63 | 29 | 2.0 | 3.0 | 0.00 | 0.00 | 0.00 | 50 | 1020.5 |
| 20260506194235 | 63 | 60 | 3.0 | 4.0 | 0.00 | 0.00 | 0.00 | 48 | 1020.5 |
| 20260506193734 | 63 | 29 | 3.0 | 4.0 | 0.00 | 0.00 | 0.00 | 49 | 1020.7 |
| 20260506193230 | 62 | 236 | 0.0 | 0.0 | 0.00 | 0.00 | 0.00 | 51 | 1020.6 |
| 20260506192726 | 61 | 239 | 2.0 | 2.0 | 0.00 | 0.00 | 0.00 | 51 | 1020.7 |
| 20260506192223 | 61 | 110 | 0.0 | 1.0 | 0.00 | 0.00 | 0.00 | 51 | 1020.8 |
| 20260506191720 | 62 | 62 | 2.0 | 2.0 | 0.00 | 0.00 | 0.00 | 51 | 1020.7 |
| 20260506191216 | 61 | 83 | 3.0 | 4.0 | 0.00 | 0.00 | 0.00 | 50 | 1020.7 |
| 20260506190714 | 61 | 297 | 2.0 | 2.0 | 0.00 | 0.00 | 0.00 | 51 | 1020.9 |
| 20260506190210 | 60 | 340 | 1.0 | 2.0 | 0.00 | 0.00 | 0.00 | 53 | 1021.0 |
| 20260506185708 | 61 | 62 | 3.0 | 7.0 | 0.00 | 0.00 | 0.00 | 52 | 1021.0 |
| 20260506185204 | 61 | 167 | 1.0 | 1.0 | 0.00 | 0.00 | 0.00 | 51 | 1020.9 |
| 20260506184702 | 61 | 58 | 2.0 | 4.0 | 0.00 | 0.00 | 0.00 | 51 | 1020.9 |
| 20260506184159 | 61 | 236 | 1.0 | 1.0 | 0.00 | 0.00 | 0.00 | 52 | 1021.0 |
| 20260506183655 | 62 | 234 | 1.0 | 1.0 | 0.00 | 0.00 | 0.00 | 52 | 1021.0 |
| 20260506183145 | 60 | 88 | 2.0 | 3.0 | 0.00 | 0.00 | 0.00 | 52 | 1021.1 |
| 20260506182643 | 60 | 100 | 2.0 | 4.0 | 0.00 | 0.00 | 0.00 | 52 | 1021.1 |
| 20260506182140 | 60 | 52 | 1.0 | 2.0 | 0.00 | 0.00 | 0.00 | 53 | 1021.2 |
| 20260506181638 | 60 | 185 | 1.0 | 1.0 | 0.00 | 0.00 | 0.00 | 52 | 1021.2 |
| 20260506181135 | 60 | 90 | 2.0 | 3.0 | 0.00 | 0.00 | 0.00 | 52 | 1021.3 |
| 20260506180632 | 60 | 89 | 1.0 | 2.0 | 0.00 | 0.00 | 0.00 | 53 | 1021.2 |
| 20260506180128 | 60 | 83 | 2.0 | 3.0 | 0.00 | 0.00 | 0.00 | 52 | 1021.6 |
| 20260506175625 | 61 | 5 | 1.0 | 2.0 | 0.00 | 0.00 | 0.00 | 54 | 1021.6 |
| 20260506175120 | 60 | 242 | 0.0 | 1.0 | 0.00 | 0.00 | 0.00 | 53 | 1021.5 |
| 20260506174619 | 59 | 176 | 2.0 | 3.0 | 0.00 | 0.00 | 0.00 | 54 | 1021.7 |
| 20260506174115 | 60 | 85 | 2.0 | 3.0 | 0.00 | 0.00 | 0.00 | 53 | 1021.7 |
| 20260506173613 | 60 | 19 | 2.0 | 3.0 | 0.00 | 0.00 | 0.00 | 53 | 1021.7 |
| 20260506173109 | 61 | 86 | 4.0 | 6.0 | 0.00 | 0.00 | 0.00 | 52 | 1021.6 |
| 20260506172607 | 61 | 103 | 2.0 | 2.0 | 0.00 | 0.00 | 0.00 | 53 | 1021.9 |
| 20260506172103 | 61 | 133 | 1.0 | 2.0 | 0.00 | 0.00 | 0.00 | 51 | 1021.7 |
| 20260506171601 | 61 | 44 | 1.0 | 1.0 | 0.00 | 0.00 | 0.00 | 53 | 1021.6 |
| 20260506171058 | 61 | 70 | 4.0 | 4.0 | 0.00 | 0.00 | 0.00 | 52 | 1021.7 |
| 20260506170555 | 60 | 39 | 7.0 | 9.0 | 0.00 | 0.00 | 0.00 | 52 | 1021.7 |
| 20260506170053 | 60 | 69 | 2.0 | 2.0 | 0.00 | 0.00 | 0.00 | 52 | 1021.8 |
| 20260506165551 | 60 | 87 | 3.0 | 4.0 | 0.00 | 0.00 | 0.00 | 52 | 1021.7 |
| 20260506165047 | 60 | 278 | 2.0 | 2.0 | 0.00 | 0.00 | 0.00 | 52 | 1021.7 |
| 20260506164544 | 60 | 84 | 3.0 | 4.0 | 0.00 | 0.00 | 0.00 | 52 | 1021.8 |
| 20260506164041 | 60 | 47 | 5.0 | 8.0 | 0.00 | 0.00 | 0.00 | 50 | 1021.9 |
| 20260506163537 | 59 | 93 | 4.0 | 6.0 | 0.00 | 0.00 | 0.00 | 51 | 1022.1 |
| 20260506163033 | 60 | 54 | 2.0 | 3.0 | 0.00 | 0.00 | 0.00 | 51 | 1022.0 |
| 20260506162530 | 60 | 297 | 3.0 | 7.0 | 0.00 | 0.00 | 0.00 | 52 | 1021.8 |
| 20260506162027 | 59 | 73 | 3.0 | 3.0 | 0.00 | 0.00 | 0.00 | 53 | 1021.8 |
| 20260506161525 | 59 | 55 | 3.0 | 3.0 | 0.00 | 0.00 | 0.00 | 53 | 1021.9 |
| 20260506161021 | 58 | 37 | 3.0 | 3.0 | 0.00 | 0.00 | 0.00 | 54 | 1021.9 |
| 20260506160519 | 58 | 168 | 2.0 | 3.0 | 0.00 | 0.00 | 0.00 | 54 | 1021.7 |
| 20260506160016 | 57 | 84 | 2.0 | 2.0 | 0.00 | 0.00 | 0.00 | 56 | 1021.8 |
| 20260506155514 | 57 | 80 | 5.0 | 7.0 | 0.00 | 0.00 | 0.00 | 56 | 1021.7 |
| 20260506153646 | 56 | 108 | 1.0 | 2.0 | 0.00 | 0.00 | 0.00 | 58 | 1021.6 |
| 20260506153143 | 55 | 53 | 2.0 | 3.0 | 0.00 | 0.00 | 0.00 | 58 | 1021.7 |
| 20260506152639 | 55 | 86 | 4.0 | 6.0 | 0.00 | 0.00 | 0.00 | 59 | 1021.8 |
| 20260506152137 | 55 | 30 | 2.0 | 3.0 | 0.00 | 0.00 | 0.00 | 59 | 1021.8 |
| 20260506151636 | 55 | 78 | 3.0 | 4.0 | 0.00 | 0.00 | 0.00 | 60 | 1021.6 |
| 20260506151132 | 55 | 86 | 4.0 | 7.0 | 0.00 | 0.00 | 0.00 | 60 | 1021.8 |
| 20260506150629 | 54 | 98 | 2.0 | 3.0 | 0.00 | 0.00 | 0.00 | 61 | 1021.7 |
| 20260506150126 | 54 | 63 | 4.0 | 7.0 | 0.00 | 0.00 | 0.00 | 62 | 1021.8 |
| 20260506145623 | 54 | 245 | 1.0 | 2.0 | 0.00 | 0.00 | 0.00 | 63 | 1021.9 |
| 20260506145120 | 53 | 65 | 3.0 | 4.0 | 0.00 | 0.00 | 0.00 | 65 | 1021.5 |
| 20260506144617 | 53 | 52 | 1.0 | 2.0 | 0.00 | 0.00 | 0.00 | 67 | 1021.3 |
| 20260506144114 | 52 | 325 | 2.0 | 4.0 | 0.00 | 0.00 | 0.00 | 69 | 1021.3 |
| 20260506143612 | 51 | 341 | 3.0 | 3.0 | 0.00 | 0.00 | 0.00 | 70 | 1021.2 |
| 20260506143109 | 51 | 28 | 3.0 | 4.0 | 0.00 | 0.00 | 0.00 | 71 | 1021.3 |
| 20260506142607 | 51 | 217 | 1.0 | 2.0 | 0.00 | 0.00 | 0.00 | 71 | 1021.5 |
| 20260506142105 | 51 | 355 | 2.0 | 3.0 | 0.00 | 0.00 | 0.00 | 71 | 1021.3 |
| 20260506141602 | 51 | 52 | 1.0 | 1.0 | 0.00 | 0.00 | 0.00 | 72 | 1021.3 |
| 20260506141101 | 51 | 80 | 3.0 | 6.0 | 0.00 | 0.00 | 0.00 | 72 | 1021.2 |
| 20260506140558 | 51 | 82 | 3.0 | 4.0 | 0.00 | 0.00 | 0.00 | 73 | 1021.5 |
| 20260506140055 | 51 | 117 | 2.0 | 4.0 | 0.00 | 0.00 | 0.00 | 72 | 1021.6 |
| 20260506135552 | 51 | 73 | 2.0 | 3.0 | 0.00 | 0.00 | 0.00 | 73 | 1021.1 |
| 20260506135048 | 50 | 138 | 5.0 | 9.0 | 0.00 | 0.00 | 0.00 | 74 | 1021.2 |
| 20260506134545 | 50 | 49 | 2.0 | 2.0 | 0.00 | 0.00 | 0.00 | 75 | 1021.2 |
| 20260506134040 | 50 | 73 | 2.0 | 2.0 | 0.00 | 0.00 | 0.00 | 75 | 1021.6 |
| 20260506133538 | 50 | 356 | 3.0 | 4.0 | 0.00 | 0.00 | 0.00 | 76 | 1021.6 |
| 20260506133035 | 50 | 36 | 4.0 | 6.0 | 0.00 | 0.00 | 0.00 | 76 | 1021.7 |
| 20260506132532 | 50 | 265 | 1.0 | 1.0 | 0.00 | 0.00 | 0.00 | 77 | 1021.7 |
| 20260506132029 | 49 | 162 | 2.0 | 3.0 | 0.00 | 0.00 | 0.00 | 77 | 1021.6 |
| 20260506131526 | 50 | 275 | 2.0 | 2.0 | 0.00 | 0.00 | 0.00 | 78 | 1021.5 |
| 20260506131023 | 50 | 21 | 1.0 | 1.0 | 0.00 | 0.00 | 0.00 | 78 | 1021.3 |
| 20260506130519 | 49 | 230 | 1.0 | 2.0 | 0.00 | 0.00 | 0.00 | 78 | 1021.1 |
| 20260506130017 | 50 | 354 | 3.0 | 6.0 | 0.00 | 0.00 | 0.00 | 78 | 1021.2 |
| 20260506125515 | 49 | 331 | 0.0 | 1.0 | 0.00 | 0.00 | 0.00 | 79 | 1021.5 |
| 20260506125013 | 49 | 116 | 2.0 | 2.0 | 0.00 | 0.00 | 0.00 | 79 | 1021.1 |
| 20260506124510 | 49 | 50 | 1.0 | 1.0 | 0.00 | 0.00 | 0.00 | 79 | 1021.3 |
| 20260506124008 | 49 | 13 | 1.0 | 1.0 | 0.00 | 0.00 | 0.00 | 79 | 1020.9 |
| 20260506123506 | 49 | 228 | 1.0 | 1.0 | 0.00 | 0.00 | 0.00 | 79 | 1020.7 |
| 20260506123004 | 49 | 31 | 3.0 | 4.0 | 0.00 | 0.00 | 0.00 | 80 | 1020.7 |
| 20260506122500 | 49 | 228 | 2.0 | 4.0 | 0.00 | 0.00 | 0.00 | 80 | 1020.6 |
| 20260506121958 | 49 | 210 | 2.0 | 3.0 | 0.00 | 0.00 | 0.00 | 80 | 1020.8 |
| 20260506121455 | 49 | 5 | 2.0 | 2.0 | 0.00 | 0.00 | 0.00 | 80 | 1020.5 |
| 20260506120952 | 49 | 343 | 1.0 | 2.0 | 0.00 | 0.00 | 0.00 | 80 | 1020.4 |
| 20260506120449 | 49 | 179 | 2.0 | 2.0 | 0.00 | 0.00 | 0.00 | 80 | 1020.1 |
| 20260506115946 | 49 | 259 | 0.0 | 1.0 | 0.00 | 0.00 | 0.00 | 80 | 1020.3 |
| 20260506115444 | 49 | 30 | 1.0 | 2.0 | 0.00 | 0.00 | 0.00 | 80 | 1020.2 |
| 20260506114943 | 49 | 72 | 2.0 | 2.0 | 0.00 | 0.00 | 0.00 | 80 | 1020.1 |
| 20260506114440 | 49 | 254 | 0.0 | 1.0 | 0.00 | 0.00 | 0.00 | 80 | 1020.2 |
| 20260506113938 | 49 | 280 | 2.0 | 3.0 | 0.00 | 0.00 | 0.00 | 80 | 1019.9 |
| 20260506113436 | 49 | 299 | 1.0 | 2.0 | 0.00 | 0.00 | 0.00 | 80 | 1020.0 |
| 20260506112932 | 49 | 78 | 2.0 | 3.0 | 0.00 | 0.00 | 0.00 | 80 | 1020.1 |
| 20260506112430 | 49 | 91 | 1.0 | 2.0 | 0.00 | 0.00 | 0.00 | 80 | 1020.0 |
| 20260506111927 | 48 | 134 | 2.0 | 3.0 | 0.00 | 0.00 | 0.00 | 80 | 1019.7 |
| 20260506111425 | 48 | 271 | 1.0 | 2.0 | 0.00 | 0.00 | 0.00 | 80 | 1019.9 |
| 20260506110922 | 49 | 1 | 2.0 | 3.0 | 0.00 | 0.00 | 0.00 | 80 | 1019.7 |
| 20260506110420 | 49 | 319 | 2.0 | 3.0 | 0.00 | 0.00 | 0.00 | 79 | 1019.8 |
| 20260506105916 | 49 | 274 | 2.0 | 4.0 | 0.00 | 0.00 | 0.00 | 79 | 1019.6 |
| 20260506105412 | 49 | 274 | 0.0 | 1.0 | 0.00 | 0.00 | 0.00 | 79 | 1019.7 |
| 20260506104909 | 49 | 106 | 1.0 | 1.0 | 0.00 | 0.00 | 0.00 | 78 | 1019.9 |
| 20260506104408 | 49 | 249 | 1.0 | 1.0 | 0.00 | 0.00 | 0.00 | 78 | 1020.3 |
| 20260506103905 | 49 | 349 | 1.0 | 1.0 | 0.00 | 0.00 | 0.00 | 77 | 1020.6 |
| 20260506103402 | 49 | 274 | 2.0 | 2.0 | 0.00 | 0.00 | 0.00 | 77 | 1020.8 |
| 20260506102859 | 49 | 262 | 0.0 | 0.0 | 0.00 | 0.00 | 0.00 | 76 | 1020.6 |
| 20260506102357 | 49 | 256 | 1.0 | 1.0 | 0.00 | 0.00 | 0.00 | 76 | 1020.3 |
| 20260506101854 | 49 | 249 | 0.0 | 1.0 | 0.00 | 0.00 | 0.00 | 76 | 1020.1 |
| 20260506101350 | 49 | 30 | 1.0 | 1.0 | 0.00 | 0.00 | 0.00 | 76 | 1020.1 |
| 20260506100848 | 49 | 277 | 0.0 | 1.0 | 0.00 | 0.00 | 0.00 | 76 | 1020.0 |
| 20260506100346 | 49 | 52 | 2.0 | 2.0 | 0.00 | 0.00 | 0.00 | 76 | 1020.1 |
| 20260506095844 | 49 | 331 | 1.0 | 2.0 | 0.00 | 0.00 | 0.00 | 76 | 1020.3 |
| 20260506095341 | 49 | 1 | 2.0 | 3.0 | 0.00 | 0.00 | 0.00 | 76 | 1020.0 |
| 20260506094838 | 49 | 245 | 1.0 | 2.0 | 0.00 | 0.00 | 0.00 | 76 | 1019.8 |
| 20260506094337 | 49 | 270 | 0.0 | 1.0 | 0.00 | 0.00 | 0.00 | 76 | 1019.6 |
| 20260506093835 | 49 | 267 | 1.0 | 2.0 | 0.00 | 0.00 | 0.00 | 76 | 1019.5 |
| 20260506093331 | 49 | 335 | 3.0 | 4.0 | 0.00 | 0.00 | 0.00 | 76 | 1019.3 |
| 20260506092829 | 49 | 307 | 0.0 | 1.0 | 0.00 | 0.00 | 0.00 | 76 | 1019.2 |
| 20260506092327 | 49 | 210 | 1.0 | 1.0 | 0.00 | 0.00 | 0.00 | 75 | 1018.9 |
| 20260506091824 | 49 | 15 | 2.0 | 3.0 | 0.00 | 0.00 | 0.00 | 75 | 1019.0 |
| 20260506091321 | 49 | 214 | 3.0 | 4.0 | 0.00 | 0.00 | 0.00 | 74 | 1019.0 |
| 20260506090819 | 49 | 285 | 1.0 | 1.0 | 0.00 | 0.00 | 0.00 | 74 | 1019.1 |
| 20260506090316 | 49 | 341 | 0.0 | 1.0 | 0.00 | 0.00 | 0.00 | 74 | 1018.8 |
| 20260506085812 | 49 | 16 | 1.0 | 2.0 | 0.00 | 0.00 | 0.00 | 73 | 1018.8 |
| 20260506085309 | 49 | 253 | 0.0 | 1.0 | 0.00 | 0.00 | 0.00 | 73 | 1018.9 |
| 20260506084805 | 49 | 235 | 1.0 | 2.0 | 0.00 | 0.00 | 0.00 | 73 | 1018.8 |
| 20260506084302 | 49 | 359 | 4.0 | 7.0 | 0.00 | 0.00 | 0.00 | 73 | 1018.9 |
| 20260506083759 | 49 | 268 | 2.0 | 3.0 | 0.00 | 0.00 | 0.00 | 73 | 1018.9 |
| 20260506083256 | 49 | 320 | 1.0 | 2.0 | 0.00 | 0.00 | 0.00 | 72 | 1018.7 |
| 20260506082754 | 49 | 204 | 2.0 | 2.0 | 0.00 | 0.00 | 0.00 | 72 | 1018.4 |
| 20260506082249 | 49 | 293 | 1.0 | 1.0 | 0.00 | 0.00 | 0.00 | 72 | 1017.9 |
| 20260506081747 | 49 | 43 | 4.0 | 7.0 | 0.00 | 0.00 | 0.00 | 72 | 1017.9 |
| 20260506081244 | 49 | 316 | 0.0 | 2.0 | 0.00 | 0.00 | 0.00 | 72 | 1017.8 |
| 20260506080742 | 50 | 273 | 1.0 | 2.0 | 0.00 | 0.00 | 0.00 | 72 | 1018.0 |
| 20260506080238 | 50 | 270 | 1.0 | 1.0 | 0.00 | 0.00 | 0.00 | 72 | 1018.0 |
| 20260506073222 | 50 | 244 | 1.0 | 1.0 | 0.00 | 0.00 | 0.00 | 70 | 1017.3 |
| 20260506072719 | 50 | 49 | 4.0 | 6.0 | 0.00 | 0.00 | 0.00 | 70 | 1017.3 |
| 20260506072217 | 50 | 296 | 0.0 | 0.0 | 0.00 | 0.00 | 0.00 | 71 | 1017.4 |
| 20260506071714 | 50 | 328 | 2.0 | 3.0 | 0.00 | 0.00 | 0.00 | 71 | 1017.3 |
| 20260506071212 | 50 | 44 | 1.0 | 2.0 | 0.00 | 0.00 | 0.00 | 71 | 1017.3 |
| 20260506070709 | 50 | 247 | 1.0 | 1.0 | 0.00 | 0.00 | 0.00 | 71 | 1017.1 |
| 20260506070206 | 50 | 178 | 0.0 | 1.0 | 0.00 | 0.00 | 0.00 | 71 | 1017.3 |
| 20260506062143 | 50 | 333 | 1.0 | 2.0 | 0.00 | 0.00 | 0.00 | 70 | 1017.7 |
| 20260506061638 | 50 | 260 | 1.0 | 1.0 | 0.00 | 0.00 | 0.00 | 69 | 1017.5 |
| 20260506061136 | 50 | 38 | 3.0 | 3.0 | 0.00 | 0.00 | 0.00 | 69 | 1017.5 |
| 20260506060635 | 50 | 341 | 2.0 | 4.0 | 0.00 | 0.00 | 0.00 | 69 | 1017.1 |
| 20260506060131 | 50 | 189 | 1.0 | 1.0 | 0.00 | 0.00 | 0.00 | 69 | 1017.4 |
| 20260506051103 | 50 | 237 | 1.0 | 1.0 | 0.00 | 0.00 | 0.00 | 68 | 1017.3 |
| 20260506050601 | 50 | 257 | 1.0 | 1.0 | 0.00 | 0.00 | 0.00 | 68 | 1017.2 |
| 20260506045052 | 50 | 35 | 3.0 | 3.0 | 0.00 | 0.00 | 0.00 | 68 | 1017.1 |
| 20260506044550 | 50 | 200 | 1.0 | 1.0 | 0.00 | 0.00 | 0.00 | 68 | 1017.2 |
| 20260506044046 | 50 | 353 | 1.0 | 2.0 | 0.00 | 0.00 | 0.00 | 67 | 1017.4 |
| 20260506043543 | 50 | 232 | 1.0 | 1.0 | 0.00 | 0.00 | 0.00 | 68 | 1017.6 |
| 20260506043042 | 50 | 67 | 1.0 | 1.0 | 0.00 | 0.00 | 0.00 | 68 | 1017.3 |
| 20260506042540 | 50 | 251 | 0.0 | 1.0 | 0.00 | 0.00 | 0.00 | 69 | 1017.2 |
| 20260506042038 | 50 | 260 | 2.0 | 3.0 | 0.00 | 0.00 | 0.00 | 69 | 1017.4 |
| 20260506041536 | 50 | 239 | 1.0 | 2.0 | 0.00 | 0.00 | 0.00 | 69 | 1017.3 |
| 20260506041033 | 50 | 93 | 2.0 | 3.0 | 0.00 | 0.00 | 0.00 | 69 | 1017.2 |
| 20260506040531 | 50 | 71 | 4.0 | 6.0 | 0.00 | 0.00 | 0.00 | 69 | 1017.5 |
| 20260506040026 | 50 | 53 | 1.0 | 2.0 | 0.00 | 0.00 | 0.00 | 70 | 1017.2 |
| 20260506035523 | 50 | 311 | 1.0 | 2.0 | 0.00 | 0.00 | 0.00 | 71 | 1017.3 |
| 20260506035020 | 50 | 27 | 3.0 | 6.0 | 0.00 | 0.00 | 0.00 | 72 | 1017.3 |
| 20260506034518 | 50 | 138 | 2.0 | 3.0 | 0.00 | 0.00 | 0.00 | 73 | 1017.2 |
| 20260506034014 | 50 | 266 | 1.0 | 1.0 | 0.00 | 0.00 | 0.00 | 73 | 1017.1 |
| 20260506033512 | 50 | 243 | 2.0 | 3.0 | 0.00 | 0.00 | 0.00 | 74 | 1016.9 |
| 20260506033009 | 50 | 337 | 0.0 | 0.0 | 0.00 | 0.00 | 0.00 | 76 | 1016.9 |
| 20260506032506 | 50 | 215 | 2.0 | 3.0 | 0.00 | 0.00 | 0.00 | 76 | 1016.3 |
| 20260506032002 | 50 | 195 | 2.0 | 3.0 | 0.00 | 0.00 | 0.00 | 77 | 1016.2 |
| 20260506031500 | 50 | 93 | 2.0 | 2.0 | 0.00 | 0.00 | 0.00 | 77 | 1016.0 |
| 20260506030957 | 50 | 54 | 1.0 | 2.0 | 0.00 | 0.00 | 0.00 | 78 | 1016.2 |
| 20260506030455 | 50 | 121 | 3.0 | 4.0 | 0.00 | 0.00 | 0.00 | 77 | 1016.2 |
| 20260506025952 | 50 | 256 | 2.0 | 3.0 | 0.00 | 0.00 | 0.00 | 77 | 1016.2 |
| 20260506025449 | 50 | 234 | 0.0 | 1.0 | 0.00 | 0.00 | 0.00 | 78 | 1016.6 |
| 20260506024945 | 50 | 282 | 4.0 | 7.0 | 0.00 | 0.00 | 0.00 | 78 | 1016.6 |
| 20260506024442 | 50 | 47 | 1.0 | 2.0 | 0.00 | 0.00 | 0.00 | 78 | 1016.3 |
| 20260506023938 | 50 | 355 | 2.0 | 3.0 | 0.00 | 0.00 | 0.00 | 78 | 1016.4 |
| 20260506023435 | 50 | 291 | 3.0 | 4.0 | 0.00 | 0.00 | 0.00 | 78 | 1016.7 |
| 20260506022931 | 50 | 240 | 1.0 | 2.0 | 0.00 | 0.00 | 0.00 | 78 | 1016.7 |